NOAA 16 DEB, 41237

Orbit data source: Space-Track

NOAA 16 DEB, 41237 is space debris in SSO originally from a launch on Thu, 21 Sep 2000 UTC launched from the Air Force Western Test Range (AFWTR). Debris objects in space refer to the collection of defunct objects orbiting the Earth. Examples of debris include non-operational satellites, rocket bodies, and fragments generated from explosions, collisions, or faulty payload assembly.

Loading next visibility...
Identifier
41237, 2000-055ES
Orbit
SSO
Country
Flag of USUS
Related business
Manufacturer
Unknown
Mission
Spacecraft
Bus & Motor
Unknown
Mass
Unknown
Launch date (UTC)
2000-09-21 (26 years ago)
Launch vehicle
Unknown
Launch site
Air Force Western Test Range (AFWTR)
Object type
Payload
Rocket body
Debris
Shape & HBR
Unknown shape, 0.1 m
Radar Cross Section
Medium (>0.1 m² and <1 m²)

Expand to show TLE details & history
Last TLE update: 14 hours ago

TLE from 14 hours ago
0 NOAA 16 DEB
1 41237U 00055ES  26255.55184739  .00004388  00000-0  98837-3 0  9990
2 41237  98.9821 150.3538 0035107 128.6989 231.7356 14.56576096563000
Epoch: 2026-09-12T13:14Z
TLE epoch observation values (Epoch: 2026-09-12T13:14:39.614Z)
Latitude
0.00005°
Longitude
-39.87048°
Altitude
722.662 km
Speed
7.486 km/s
True Right ascension
10h 01m 24s
True Declination
0° 00' 00"
Sunlit
Object was in daylight at epoch
Visualization orbit readout
Latitude
Unknown
Longitude
Unknown
Altitude
Unknown
Speed
Unknown
Apparent Right ascension
Unknown
Apparent Declination
Unknown
Sunlit
N/A
Visualization observer readout
Local Sidereal Time
19:39:36
Azimuth
Unknown
Elevation
Unknown
Doppler factor
Unknown
Orbital elements
Apogee altitude
726.228 km
Perigee altitude
676.52 km
Semi-major axis
7,079.511 km
Eccentricity
0.00351
Inclination
98.9821°
RAAN
150.3538°
Arg. of periapsis
128.6989°
True anomaly
231.42059°
Mean anomaly
231.7356°
Eccentric anomaly
231.57801°
Mean motion
3.64366 °/min
Orbital period
98.8 mins
BSTAR
0.00098837
Loading maneuver chart data...
Computing Atmospheric mass density...
Loading historical data...
Loading historical data...
Loading historical data...
Loading historical data...
Loading historical data...
Loading historical data...
Loading historical data...

Documentation

Showing up to 5 results
|